Printer-friendly version

IAU Minor Planet Center

Minor Planet Center

MPEC 2000-E43: 2000 EH26

The following Minor Planet Electronic Circular may be linked-to from your own Web pages, but must not otherwise be redistributed electronically.


Read MPEC 2000-E42 Read MPEC 2000-E44


M.P.E.C. 2000-E43                                Issued 2000 Mar. 10, 17:44 UT

     The Minor Planet Electronic Circulars contain information on unusual
         minor planets and routine data on comets.  They are published
   on behalf of Commission 20 of the International Astronomical Union by the
          Minor Planet Center, Smithsonian Astrophysical Observatory,
                          Cambridge, MA 02138, U.S.A.

             Prepared using the Tamkin Foundation Computer Network

             BMARSDEN@CFA.HARVARD.EDU or GWILLIAMS@CFA.HARVARD.EDU
          URL http://cfa-www.harvard.edu/iau/mpc.html  ISSN 1523-6714

                                   2000 EH26

Observations:
     K00E26H* C2000 03 04.24720 10 06 10.48 +10 04 40.1          19.3        704
     K00E26H  C2000 03 04.26066 10 06 08.98 +10 04 48.2          18.7        704
     K00E26H  C2000 03 04.27412 10 06 07.40 +10 04 54.5          19.1        704
     K00E26H  C2000 03 04.28757 10 06 05.96 +10 05 00.6          19.1        704
     K00E26H  C2000 03 05.28791 10 04 22.68 +10 13 51.9          20.0 R      858
     K00E26H  C2000 03 05.29266 10 04 22.24 +10 13 54.5          20.1 R      858
     K00E26H  C2000 03 05.46174 10 04 05.15 +10 16 06.3          19.7 R      474
     K00E26H  C2000 03 05.46304 10 04 05.02 +10 16 06.4          20.0 R      474
     K00E26H  C2000 03 05.46562 10 04 04.74 +10 16 07.9          19.5 R      474
     K00E26H  C2000 03 05.46694 10 04 04.57 +10 16 08.6          19.8 R      474
     K00E26H  C2000 03 05.46819 10 04 04.46 +10 16 09.6          19.4 R      474
     K00E26H  C2000 03 09.25573 09 57 11.79 +10 50 50.8          19.7 R      858
     K00E26H  C2000 03 09.26199 09 57 10.98 +10 50 54.4          19.8 R      858
     K00E26H  C2000 03 09.26814 09 57 10.21 +10 50 58.3          19.5 R      858

Observer details:
474 Mount John Observatory, Lake Tekapo.  Observers I. P. Griffin, N. Brady.
    1.0-m f/7.7 reflector + CCD.
704 Lincoln Laboratory ETS, New Mexico.  Observers M. Blythe, F. Shelly,
    M. Bezpalko, M. Elowitz, R. Huber.  Measurers J. Stuart, H. Viggh,
    R. Sayer, J. B. Evans.  1.0-m f/2.15 reflector + CCD.
858 Tebbutt Observatory, Edgewood.  Observer F. B. Zoltowski.  0.3-m f/3.3
    Schmidt-Cassegrain + CCD.

Orbital elements:
2000 EH26                                                            PHA 0.001
Epoch 2000 Feb. 26.0 TT = JDT 2451600.5                 Williams
M 329.78341              (2000.0)            P               Q
n   0.38922151     Peri.   18.48747     -0.58182952     +0.81330071
a   1.8578251      Node   215.93352     -0.74706497     -0.53639824
e   0.4796731      Incl.    0.39502     -0.32150949     -0.22543043
P   2.53           H   21.8           G   0.15
From 14 observations 2000 Mar. 4-9.

Ephemeris:
2000 EH26                a,e,i = 1.86, 0.48, 0                   q = 0.9667
Date    TT    R. A. (2000) Decl.     Delta      r     Elong.  Phase     V
2000 03 07    10 01.35   +10 29.7    0.258    1.240   161.9    14.4    20.1
2000 03 12    09 51.93   +11 18.1    0.233    1.208   154.5    20.7    20.1
2000 03 17    09 41.86   +12 09.5    0.210    1.177   146.9    27.5    20.0
2000 03 22    09 31.31   +13 02.6    0.189    1.147   139.2    34.6    19.9
2000 03 27    09 20.33   +13 56.9    0.170    1.118   131.5    42.0    19.8
2000 04 01    09 08.87   +14 52.6    0.152    1.091   123.6    49.7    19.7
2000 04 06    08 56.62   +15 50.7    0.134    1.065   115.6    57.9    19.7
2000 04 11    08 42.78   +16 54.0    0.116    1.042   107.2    66.7    19.6
2000 04 16    08 25.63   +18 08.2    0.098    1.022    98.0    76.5    19.5
2000 04 21    08 01.59   +19 41.4    0.081    1.004    87.3    88.1    19.4
2000 04 26    07 23.49   +21 41.0    0.064    0.990    73.3   103.2    19.6
2000 05 01    06 17.23   +23 44.5    0.049    0.979    53.0   124.7    20.4
2000 05 06    04 27.99   +23 12.3    0.041    0.971    23.2   155.8    24.5

2000 05 16    01 05.42   +09 41.0    0.056    0.967    36.7   141.3    22.5
2000 05 26    23 56.24   +02 10.4    0.091    0.978    65.1   110.1    20.7
2000 06 05    23 31.82   -00 38.2    0.129    1.003    81.4    91.3    20.6
2000 06 15    23 19.27   -02 05.3    0.164    1.041    94.4    76.6    20.6
2000 06 25    23 08.89   -03 16.2    0.196    1.089   106.8    63.3    20.7
2000 07 05    22 56.49   -04 38.5    0.225    1.145   119.7    50.5    20.7
2000 07 15    22 40.82   -06 20.7    0.255    1.206   133.5    37.7    20.8
2000 07 25    22 22.65   -08 16.9    0.291    1.272   147.9    25.1    20.8
2000 08 04    22 03.99   -10 13.3    0.336    1.339   162.4    13.2    20.8
2000 08 14    21 47.54   -11 53.8    0.396    1.408   176.2     2.7    20.8
2000 08 24    21 35.23   -13 08.8    0.470    1.477   170.6     6.4    21.5
2000 09 03    21 27.77   -13 56.7    0.561    1.545   159.0    13.5    22.3

Gareth V. Williams           (C) Copyright 2000 MPC           M.P.E.C. 2000-E43

Read MPEC 2000-E42 Read MPEC 2000-E44


Our Web policy. Index to the CBAT/MPC/ICQ pages.


Valid HTML 4.01!